Weather Roundup
Issued by NWS Springfield, MO

Home | Current Version | Previous Version | Text Only | Print | Product List | Glossary On
Versions: 1 2 3 4 5 6 7 8 9 10 11 12 13 14 15 16 17 18 19 20 21 22 23 24 25 26 27 28 29 30 31 32 33 34 35 36 37 38 39 40 41 42 43 44 45 46 47 48 49 50
000
NZUS99 KSGF 031359
HRRSGF

HOURLY WEATHER
NATIONAL WEATHER SERVICE SPRINGFIELD MO
900 AM CDT SUN MAY 03 2015

......SGF CWA......

CITY           SKY/WX    TMP DP  RH WIND       PRES   REMARKS
SPRINGFIELD    PTSUNNY   65  51  60 S15       30.01S
JOPLIN         PTSUNNY   68  53  58 S16G24    29.98R
WEST PLAINS    PTSUNNY   64  44  48 SW6       30.08R
ROLLA          PTSUNNY   65  50  58 S9        30.01S
OSAGE BEACH    PTSUNNY   64  50  59 SE6       30.00F
BRANSON        PTSUNNY   66  50  55 SE6       30.05R

......SURROUNDING SGF CWA......

CITY           SKY/WX    TMP DP  RH WIND       PRES   REMARKS
CHANUTE        MOSUNNY   69  55  60 S21G28    29.92S
PARSONS        PTSUNNY   67  56  67 S9        29.94S
COFFEYVILLE    MOSUNNY   65  55  70 S13       29.93S
EMPORIA        MOSUNNY   67  55  65 S21G28    29.85R
SILOAM SPRINGS MOSUNNY   66  52  59 S9        30.03S
HARRISON AR    MOSUNNY   66  51  58 S10       30.06R
NEAR YELLVILLE MOSUNNY   63  48  59 E3        30.05R

......KANSAS AND MISSOURI......

CITY           SKY/WX    TMP DP  RH WIND       PRES   REMARKS
KANSAS CTY INT PTSUNNY   66  55  67 S16       29.86S
DOWNTOWN KC    CLOUDY    67  53  61 S15G25    29.87R
COLUMBIA       PTSUNNY   65  51  60 S10       29.99R
SEDALIA        PTSUNNY   70  52  52 SW16G28   29.96S
ST JOSEPH      MOSUNNY   69  57  65 S17       29.84S
ST LOUIS       NOT AVBL
SPIRIT OF STL  MOSUNNY   68  48  48 SW9       30.02R
KIRKSVILLE     PTSUNNY   66  54  65 S15G23    29.90F
WICHITA        PTSUNNY   66  54  65 S17       29.85S
TOPEKA         PTSUNNY   66  56  70 S14G22    29.85R
OLATHE         CLOUDY    64  54  69 S10       29.89S

......TENNESSEE......

CITY           SKY/WX    TMP DP  RH WIND       PRES   REMARKS
MEMPHIS        MOSUNNY   69  52  54 S9        30.11R
NASHVILLE      MOSUNNY   65  50  58 CALM      30.15R

......ARKANSAS.......

CITY           SKY/WX    TMP DP  RH WIND       PRES   REMARKS
FAYETTEVILLE   MOSUNNY   68  56  65 S13       30.02F
FT SMITH       MOSUNNY   65  54  67 NE6       30.02R
LITTLE ROCK    MOSUNNY   67  47  48 S8        30.07R

......OKLAHOMA.......

CITY           SKY/WX    TMP DP  RH WIND       PRES   REMARKS
TULSA          PTSUNNY   68  55  63 S13       29.95R
PONCA CITY     PTSUNNY   66  56  70 S8G16     29.90R
MCALESTER      SUNNY     70  57  63 S9        30.01R
OKLAHOMA CITY  CLOUDY    67  54  63 S15       29.95R

......IOWA............

CITY           SKY/WX    TMP DP  RH WIND       PRES   REMARKS
DES MOINES     PTSUNNY   67  56  67 S12       29.80S
QUAD CITIES    LGT RAIN  61  51  70 S6        29.92F

......ILLINOIS........

CITY           SKY/WX    TMP DP  RH WIND       PRES   REMARKS
QUINCY         MOSUNNY   67  50  54 S15       29.97S
CHICAGO        PTSUNNY   67  43  41 SW12      29.97S




USA.gov is the U.S. government's official web portal to all federal, state and local government web resources and services.